| time (UTC) | temp F | wind direction | speed MPH | gust MPH | rain 1hr in | rain 24hr in | rain mn in | humidity % | barometer mb |
| 20260505014534 | 60 | 82 | 8.0 | 14.0 | 0.00 | 0.00 | 0.00 | 58 | 1011.6 |
| 20260505013031 | 60 | 158 | 6.0 | 15.0 | 0.00 | 0.00 | 0.00 | 57 | 1011.4 |
| 20260505011533 | 61 | 121 | 5.0 | 10.0 | 0.00 | 0.00 | 0.00 | 56 | 1011.2 |
| 20260505010022 | 62 | 144 | 7.0 | 19.0 | 0.00 | 0.00 | 0.00 | 55 | 1011.0 |
| 20260505004534 | 62 | 128 | 8.0 | 13.0 | 0.00 | 0.00 | 0.00 | 55 | 1010.8 |
| 20260505003045 | 63 | 142 | 7.0 | 16.0 | 0.00 | 0.00 | 0.00 | 54 | 1010.4 |
| 20260505001522 | 63 | 150 | 5.0 | 13.0 | 0.00 | 0.00 | 0.00 | 54 | 1009.9 |
| 20260505000021 | 64 | 96 | 8.0 | 18.0 | 0.00 | 0.00 | 0.00 | 52 | 1009.6 |
| 20260504234518 | 64 | 165 | 9.0 | 16.0 | 0.00 | 0.00 | 0.00 | 52 | 1009.2 |
| 20260504233018 | 65 | 136 | 9.0 | 15.0 | 0.00 | 0.00 | 0.00 | 51 | 1009.0 |
| 20260504231518 | 66 | 142 | 7.0 | 18.0 | 0.00 | 0.00 | 0.00 | 50 | 1008.8 |
| 20260504230016 | 67 | 155 | 6.0 | 18.0 | 0.00 | 0.00 | 0.00 | 48 | 1008.3 |
| 20260504224518 | 68 | 115 | 8.0 | 19.0 | 0.00 | 0.00 | 0.00 | 47 | 1008.1 |
| 20260504223016 | 68 | 111 | 10.0 | 20.0 | 0.00 | 0.00 | 0.00 | 46 | 1007.9 |
| 20260504221515 | 70 | 139 | 8.0 | 16.0 | 0.00 | 0.00 | 0.00 | 42 | 1007.9 |
| 20260504220013 | 71 | 140 | 7.0 | 15.0 | 0.00 | 0.00 | 0.00 | 39 | 1007.7 |
| 20260504214517 | 72 | 175 | 5.0 | 20.0 | 0.00 | 0.00 | 0.00 | 39 | 1007.8 |
| 20260504213021 | 72 | 148 | 7.0 | 16.0 | 0.00 | 0.00 | 0.00 | 39 | 1007.7 |
| 20260504211528 | 73 | 128 | 5.0 | 15.0 | 0.00 | 0.00 | 0.00 | 39 | 1007.7 |
| 20260504210010 | 72 | 123 | 8.0 | 15.0 | 0.00 | 0.00 | 0.00 | 38 | 1007.7 |
| 20260504204508 | 72 | 138 | 6.0 | 21.0 | 0.00 | 0.00 | 0.00 | 38 | 1007.7 |
| 20260504203008 | 71 | 143 | 7.0 | 20.0 | 0.00 | 0.00 | 0.00 | 38 | 1007.9 |
| 20260504201506 | 72 | 138 | 12.0 | 22.0 | 0.00 | 0.00 | 0.00 | 37 | 1007.9 |
| 20260504200007 | 72 | 110 | 10.0 | 19.0 | 0.00 | 0.00 | 0.00 | 36 | 1008.0 |
| 20260504194505 | 71 | 154 | 10.0 | 19.0 | 0.00 | 0.00 | 0.00 | 36 | 1008.1 |
| 20260504193005 | 72 | 161 | 10.0 | 24.0 | 0.00 | 0.00 | 0.00 | 36 | 1008.1 |
| 20260504191502 | 71 | 165 | 8.0 | 22.0 | 0.00 | 0.00 | 0.00 | 36 | 1008.0 |
| 20260504190000 | 71 | 137 | 8.0 | 21.0 | 0.00 | 0.00 | 0.00 | 37 | 1008.3 |
| 20260504184501 | 71 | 141 | 7.0 | 20.0 | 0.00 | 0.00 | 0.00 | 37 | 1008.3 |
| 20260504183100 | 71 | 129 | 8.0 | 23.0 | 0.00 | 0.00 | 0.00 | 36 | 1008.4 |
| 20260504181601 | 71 | 169 | 7.0 | 19.0 | 0.00 | 0.00 | 0.00 | 38 | 1008.5 |
| 20260504180055 | 70 | 142 | 9.0 | 22.0 | 0.00 | 0.00 | 0.00 | 39 | 1008.7 |
| 20260504174554 | 70 | 134 | 8.0 | 20.0 | 0.00 | 0.00 | 0.00 | 38 | 1008.9 |
| 20260504173056 | 70 | 173 | 9.0 | 22.0 | 0.00 | 0.00 | 0.00 | 38 | 1009.0 |
| 20260504171549 | 69 | 144 | 10.0 | 25.0 | 0.00 | 0.00 | 0.00 | 39 | 1009.0 |
| 20260504081512 | 44 | 213 | 0.0 | 0.0 | 0.00 | 0.00 | 0.00 | 69 | 1011.5 |
| 20260504044539 | 38 | 213 | 0.0 | 0.0 | 0.00 | 0.00 | 0.00 | 77 | 1011.8 |
| 20260504043042 | 39 | 213 | 0.0 | 0.0 | 0.00 | 0.00 | 0.00 | 76 | 1011.7 |
| 20260504041536 | 39 | 213 | 0.0 | 0.0 | 0.00 | 0.00 | 0.00 | 75 | 1011.7 |
| 20260504040034 | 39 | 213 | 0.0 | 0.0 | 0.00 | 0.00 | 0.00 | 74 | 1011.4 |
| 20260504034531 | 40 | 213 | 0.0 | 0.0 | 0.00 | 0.00 | 0.00 | 73 | 1011.4 |
| 20260504033029 | 40 | 213 | 0.0 | 0.0 | 0.00 | 0.00 | 0.00 | 72 | 1011.3 |
| 20260504031527 | 40 | 213 | 0.0 | 0.0 | 0.00 | 0.00 | 0.00 | 71 | 1011.2 |
| 20260504030026 | 41 | 213 | 0.0 | 0.0 | 0.00 | 0.00 | 0.00 | 71 | 1011.2 |
| 20260504024526 | 41 | 213 | 0.0 | 0.0 | 0.00 | 0.00 | 0.00 | 70 | 1011.2 |
| 20260504023025 | 41 | 213 | 0.0 | 0.0 | 0.00 | 0.00 | 0.00 | 69 | 1011.0 |
| 20260504021521 | 42 | 213 | 0.0 | 2.0 | 0.00 | 0.00 | 0.00 | 68 | 1011.0 |
| 20260504020020 | 43 | 213 | 0.0 | 0.0 | 0.00 | 0.00 | 0.00 | 66 | 1010.9 |